FALCON 9 DEB (53811 NORAD) Tracking and Keplerian Element Data

This shows tracking and keplerian element data for the satellite.

Feedback or suggestion? Click here.




ElementValue
Catalog53811
NameFALCON 9 DEB
Epoch Orbit853
Epoch Day307.64558016
Epoch Year2022
RAAN355.0478
Inclination53.1855
Eccentricity0.0011549
Argument of Perigee25.3252
Mean Anonmoly334.835
Mean Motion16.15466621
Decay Rate0.0140916
L11 53811U 22111AQ 22307.64558016 .01409160 15370-2 10146-2 0 9997
L22 53811 53.1855 355.0478 0011549 25.3252 334.8350 16.15466621 8538



Live tracking and technical data element details for FALCON 9 DEB (NORAD 53811). FALCON 9 DEB can be tracked NOW for your location showing map with azimuth and elevation plus other details from your city location.







IsCatalogInMostPopularTable: catalog: 53811, numindb: -1

Insert: records affected: 1


GetName: 53811 FALCON 9 DEB

Hit Count: inserted at: Thu, 08 Dec 2022 09:27:33 GMT